Wind_Speed
38 38 37 35 33 31 29 26 24 24 23 22 21 21 20 20 20 19 18 18 18 18 18 18 19 20 21 21 22 23 23 25 26 25 24 22 21 20 19 18 17 17 16
38 39 38 36 33 32 30 28 26 25 24 23 23 22 21 21 20 19 18 18 19 19 18 18 19 19 20 21 21 22 23 24 26 26 26 26 24 22 21 20 19 18 18
38 39 39 37 35 33 32 30 29 27 25 24 24 23 22 21 20 19 19 19 18 18 18 18 19 19 20 20 21 22 22 23 25 26 27 27 27 26 24 22 21 20 19
38 39 39 38 36 34 32 31 30 29 27 26 24 24 23 22 21 20 20 19 18 17 17 17 18 18 18 20 21 21 22 22 23 25 27 28 29 29 28 26 24 23 21
33 36 37 37 37 35 32 31 29 30 29 27 25 24 23 22 22 21 20 19 18 17 17 17 17 17 18 19 20 20 21 22 23 24 26 28 29 30 30 29 27 26 25
30 32 33 33 35 35 32 31 30 30 29 28 26 25 25 24 23 22 22 20 19 18 18 17 16 16 16 18 19 18 20 21 22 23 25 27 30 31 32 31 29 28 27
28 27 29 30 31 32 31 31 30 30 30 29 27 26 26 26 25 24 23 22 20 20 19 17 16 15 15 16 17 17 18 20 21 22 23 25 28 31 32 32 31 31 30
27 27 28 29 30 29 29 31 31 30 29 29 29 28 28 27 27 26 25 24 23 21 20 19 17 16 15 15 15 16 17 18 20 21 22 23 25 27 30 32 33 32 32
27 27 28 29 29 29 29 30 31 31 31 31 31 30 30 30 29 29 28 27 25 24 22 20 18 17 15 14 15 16 17 17 18 19 20 21 23 25 27 30 31 33 33
29 29 29 29 30 30 31 31 31 30 30 31 31 31 32 31 31 31 30 29 27 26 24 22 20 18 17 15 14 14 15 16 17 19 20 20 22 24 26 28 30 32 34
34 33 33 33 32 33 32 32 32 31 31 32 32 32 33 33 33 33 33 32 30 28 27 25 23 21 19 17 16 14 14 15 17 18 19 20 21 23 25 26 29 31 33
37 38 38 37 37 37 36 35 35 35 35 35 35 36 36 36 35 35 35 35 33 32 30 28 26 24 22 20 18 16 15 16 16 17 18 20 20 22 24 26 28 30 32
42 42 42 42 42 42 41 40 40 39 39 39 38 39 39 39 39 38 38 38 37 35 33 31 29 27 25 22 20 19 17 17 17 17 18 19 20 21 23 24 26 29 30
46 46 46 46 47 47 47 47 46 44 43 43 43 42 42 42 41 42 42 41 40 38 37 35 32 30 28 26 23 21 20 19 18 18 19 20 21 21 22 24 26 28 29
49 49 50 50 52 53 53 54 53 52 50 49 47 46 47 46 45 45 45 44 43 41 40 38 36 33 31 29 26 24 22 21 20 19 20 20 21 22 23 24 25 27 29
50 51 53 53 54 56 57 58 59 59 57 56 54 53 51 50 49 48 48 47 46 45 43 41 39 36 34 31 29 26 25 23 22 21 21 21 21 22 23 25 26 27 27
51 52 54 55 56 58 60 61 62 63 63 62 60 59 57 54 53 52 51 50 49 48 46 44 43 40 37 34 31 29 27 25 24 23 22 22 22 22 22 24 25 25 25
53 54 54 56 58 60 61 63 64 65 66 66 65 65 63 60 58 56 55 54 53 51 49 48 45 43 40 37 34 32 29 28 26 24 23 22 22 22 22 22 24 24 25
54 54 54 55 57 59 61 63 65 66 68 69 69 68 67 66 64 61 60 58 56 54 53 51 48 46 43 41 38 35 32 30 28 27 25 23 23 23 22 22 23 23 24
52 52 53 53 54 56 57 59 62 64 67 68 69 69 69 69 69 68 66 64 62 59 56 54 52 50 47 43 40 37 35 32 30 28 26 25 23 23 23 22 22 23 23
51 51 51 51 51 51 52 53 55 58 61 63 65 67 68 68 69 70 68 67 67 64 60 57 55 52 49 46 43 40 37 34 32 30 27 25 24 23 23 22 22 22 22
49 48 48 48 48 49 49 49 50 51 53 55 58 62 65 66 66 67 68 67 67 67 64 61 58 54 51 48 45 42 39 36 33 31 29 26 24 24 23 23 22 21 21
46 46 46 46 47 48 49 48 47 47 47 47 49 52 57 61 63 65 66 67 67 67 65 62 60 56 54 51 48 44 41 38 36 33 30 27 25 24 23 22 21 21 20
43 43 44 44 44 45 46 46 46 46 44 43 43 44 46 51 55 58 62 62 62 66 66 63 59 56 55 53 50 47 44 40 37 34 31 28 26 24 23 23 22 21 20
39 39 40 40 41 41 43 44 44 44 43 41 40 40 41 42 46 49 52 55 57 60 63 64 62 58 54 53 51 48 45 41 38 35 32 29 27 25 24 23 22 21 21
34 34 35 36 37 38 40 41 42 43 41 40 39 38 38 38 40 42 44 48 52 55 59 60 60 58 55 52 50 48 45 42 39 35 32 30 28 26 24 23 22 21 21
Wind_Direction
277 275 275 273 270 267 267 262 260 257 254 254 255 255 254 253 253 251 252 250 250 250 252 253 253 251 250 250 250 246 244 240 236 233 230 229 229 229 230 231 230 230 229
275 272 271 269 265 264 263 257 257 255 253 252 252 252 251 251 250 250 251 251 251 251 252 253 254 254 252 252 251 250 245 244 239 234 232 230 230 230 230 231 232 233 234
275 271 268 267 262 262 262 258 256 253 251 250 250 250 247 247 246 245 247 249 249 250 250 252 256 256 255 254 253 252 249 249 245 240 235 231 229 229 230 232 233 235 236
274 269 265 263 260 261 258 256 254 252 251 249 249 247 245 244 243 243 245 247 248 249 249 252 254 255 255 255 256 254 251 249 247 245 239 234 231 231 231 233 234 235 236
272 267 261 259 257 256 254 254 251 250 249 248 247 245 244 242 241 240 242 244 246 247 249 252 253 256 257 256 256 255 252 249 247 247 243 238 233 232 233 233 234 235 235
271 265 260 257 253 251 250 251 249 248 247 245 245 244 244 242 240 240 240 242 244 247 249 251 251 254 255 256 256 257 254 250 250 249 246 241 237 234 234 234 235 235 235
270 266 259 258 251 248 248 246 248 248 247 243 243 243 242 241 239 238 238 240 243 245 247 249 250 253 255 256 256 258 256 252 252 249 248 246 244 240 236 236 237 236 236
269 265 260 254 250 248 247 247 247 250 245 242 242 242 241 239 237 236 237 239 240 242 244 247 250 253 256 256 257 258 258 255 254 251 250 250 247 242 239 238 237 238 237
274 268 262 257 254 251 251 249 248 249 245 243 241 241 239 238 236 235 236 237 238 240 241 244 247 249 253 257 258 261 261 258 255 251 251 251 247 244 244 242 240 240 240
276 270 265 261 255 252 249 249 249 247 244 242 242 241 238 237 235 235 235 236 236 237 239 241 243 245 249 254 258 262 264 261 258 255 252 251 248 245 245 244 242 241 242
271 267 263 260 258 254 250 249 248 245 244 243 242 241 239 237 236 235 235 235 235 236 237 239 242 244 247 250 254 260 264 263 260 258 254 252 251 248 247 246 244 242 242
269 265 263 260 257 255 251 250 248 246 245 243 243 242 240 239 237 236 237 236 236 235 236 238 240 242 245 248 251 256 260 262 262 260 257 255 254 253 251 249 247 245 244
268 264 261 258 256 254 251 250 249 247 246 245 244 242 240 240 238 237 237 238 237 236 236 237 239 241 244 247 249 253 257 261 262 261 260 258 257 258 254 252 250 248 247
267 263 260 257 255 253 251 250 249 248 247 246 245 244 242 241 240 239 238 238 238 237 237 237 237 239 242 244 246 250 254 258 261 263 263 262 260 260 257 253 251 249 248
267 263 260 257 255 252 250 249 248 247 247 246 246 244 243 242 240 239 238 238 238 237 238 237 237 237 239 242 244 247 251 254 258 262 263 263 262 262 258 254 252 250 248
268 264 261 258 255 253 251 249 247 246 246 246 245 244 243 241 240 239 239 238 237 237 238 238 237 236 237 239 242 244 247 250 254 259 261 263 263 264 261 256 254 252 250
270 266 262 259 256 254 251 250 248 246 245 244 244 244 242 242 241 240 238 237 237 237 237 237 238 237 236 237 239 242 245 248 252 256 259 261 262 263 262 258 254 254 251
272 268 265 261 258 255 252 250 248 246 245 244 243 242 241 241 241 240 238 238 237 236 236 236 237 237 237 236 237 239 243 246 249 253 257 260 261 262 263 260 254 253 251
273 271 267 263 259 255 252 250 248 246 245 243 242 241 240 239 239 238 238 237 237 237 236 236 235 236 236 236 236 237 240 243 246 250 254 258 261 261 262 260 256 253 251
273 270 267 264 261 257 253 250 248 246 244 243 242 241 240 240 240 239 238 237 237 237 236 235 235 235 235 235 235 235 237 240 243 247 251 255 258 260 260 259 257 255 252
273 270 267 264 260 257 253 251 248 246 244 243 242 241 240 240 239 239 238 238 237 236 235 234 234 233 233 233 234 234 235 238 240 244 248 252 255 257 257 257 256 254 252
272 269 266 261 257 254 252 249 246 245 243 242 242 241 240 240 239 239 238 238 237 236 235 234 233 232 232 232 232 232 233 235 237 241 245 248 252 255 255 254 254 253 252
272 266 262 258 255 252 249 246 244 242 241 240 240 241 241 241 240 240 239 238 236 235 233 232 231 231 231 230 230 231 231 233 235 238 241 245 249 253 252 252 252 251 250
273 267 261 256 253 249 247 243 240 238 237 237 237 237 239 240 240 240 239 238 237 234 233 231 229 229 228 227 228 228 229 230 232 235 238 242 246 250 251 251 250 250 249
274 267 260 254 249 247 244 241 238 235 234 234 234 236 237 238 239 239 238 237 235 233 231 231 229 226 225 225 225 226 227 228 230 233 236 239 242 246 248 250 248 248 248
274 266 259 252 247 244 241 239 235 232 231 231 232 235 236 237 239 239 238 236 234 231 228 226 226 224 224 223 223 224 225 226 228 230 233 236 239 243 245 246 245 245 247
Height
5862 5861 5861 5860 5860 5860 5861 5862 5862 5863 5864 5864 5865 5866 5867 5867 5867 5868 5870 5871 5872 5873 5873 5874 5875 5876 5877 5878 5879 5881 5882 5884 5885 5887 5889 5892 5894 5896 5898 5899 5901 5903 5904
5853 5852 5852 5852 5853 5853 5853 5854 5856 5857 5857 5858 5859 5860 5861 5862 5863 5864 5865 5866 5867 5868 5869 5870 5870 5871 5872 5873 5875 5876 5877 5878 5880 5882 5884 5887 5890 5892 5894 5896 5898 5900 5902
5843 5843 5844 5844 5845 5845 5846 5847 5849 5850 5851 5852 5853 5855 5856 5857 5858 5859 5860 5861 5862 5863 5864 5865 5866 5866 5867 5868 5869 5870 5872 5873 5874 5877 5879 5882 5885 5888 5890 5892 5894 5896 5899
5834 5834 5834 5835 5837 5837 5839 5840 5842 5844 5845 5846 5847 5848 5850 5851 5853 5854 5855 5857 5858 5859 5860 5861 5861 5862 5862 5863 5864 5865 5867 5868 5869 5871 5874 5876 5879 5882 5885 5888 5890 5892 5895
5824 5824 5825 5826 5828 5830 5831 5833 5835 5837 5838 5840 5841 5842 5844 5846 5847 5849 5851 5852 5853 5854 5855 5856 5857 5857 5858 5858 5859 5860 5862 5863 5864 5866 5868 5870 5873 5876 5879 5882 5885 5888 5890
5815 5816 5816 5817 5819 5822 5824 5825 5828 5829 5831 5833 5834 5836 5838 5840 5841 5843 5845 5847 5848 5850 5851 5852 5852 5852 5853 5854 5855 5856 5857 5858 5859 5861 5862 5865 5867 5870 5873 5876 5879 5882 5885
5808 5808 5809 5810 5811 5814 5816 5818 5820 5822 5824 5826 5828 5829 5831 5833 5835 5837 5840 5842 5843 5845 5846 5847 5848 5848 5849 5849 5850 5851 5852 5853 5854 5855 5857 5859 5861 5863 5866 5869 5873 5876 5879
5801 5801 5803 5803 5805 5806 5808 5810 5812 5814 5816 5818 5821 5823 5825 5828 5829 5831 5834 5836 5838 5839 5841 5842 5843 5844 5844 5845 5846 5847 5848 5849 5849 5850 5852 5854 5855 5857 5860 5863 5866 5869 5873
5796 5795 5796 5797 5798 5799 5801 5803 5805 5807 5808 5811 5813 5815 5818 5820 5823 5825 5827 5830 5832 5834 5836 5837 5838 5839 5840 5841 5841 5842 5843 5844 5845 5846 5847 5848 5850 5852 5854 5856 5859 5863 5866
5789 5789 5789 5790 5790 5791 5793 5795 5797 5798 5800 5802 5805 5807 5810 5812 5815 5818 5821 5823 5826 5828 5830 5832 5833 5835 5836 5836 5837 5838 5839 5839 5840 5841 5842 5843 5845 5846 5848 5850 5853 5856 5859
5781 5780 5780 5781 5782 5783 5784 5786 5788 5790 5792 5794 5796 5799 5801 5804 5807 5810 5813 5816 5819 5821 5824 5826 5828 5830 5831 5832 5833 5834 5835 5835 5836 5836 5837 5838 5839 5841 5842 5844 5846 5849 5852
5771 5771 5771 5771 5772 5773 5775 5776 5778 5780 5782 5785 5787 5790 5793 5796 5798 5801 5805 5808 5811 5814 5817 5819 5822 5824 5826 5827 5828 5830 5830 5831 5832 5832 5832 5833 5834 5835 5836 5837 5839 5842 5844
5759 5759 5759 5760 5761 5762 5764 5766 5767 5770 5772 5775 5777 5780 5783 5786 5789 5792 5796 5799 5802 5806 5809 5812 5815 5818 5820 5822 5823 5824 5825 5826 5827 5827 5828 5828 5829 5829 5830 5831 5833 5835 5837
5745 5745 5745 5746 5748 5749 5751 5753 5755 5758 5760 5763 5766 5769 5772 5775 5779 5782 5786 5790 5794 5797 5801 5804 5808 5810 5813 5815 5817 5818 5820 5821 5822 5822 5822 5823 5823 5824 5824 5825 5826 5828 5830
5729 5729 5729 5730 5732 5734 5735 5738 5740 5743 5747 5750 5753 5757 5760 5764 5767 5771 5775 5780 5784 5788 5792 5796 5799 5803 5806 5808 5810 5812 5814 5815 5816 5817 5817 5817 5818 5818 5818 5819 5820 5821 5823
5712 5712 5712 5713 5714 5716 5718 5721 5724 5727 5731 5735 5739 5743 5746 5750 5755 5759 5763 5768 5773 5777 5782 5786 5790 5794 5798 5801 5803 5805 5807 5809 5810 5811 5812 5812 5812 5812 5812 5813 5814 5814 5816
5693 5693 5693 5694 5695 5697 5699 5702 5705 5709 5714 5718 5722 5727 5731 5735 5740 5745 5750 5755 5761 5766 5771 5776 5780 5785 5789 5792 5796 5798 5800 5802 5804 5805 5806 5806 5806 5806 5807 5807 5807 5808 5809
5674 5673 5673 5673 5675 5677 5679 5682 5685 5689 5694 5699 5704 5709 5715 5719 5724 5730 5735 5741 5748 5754 5759 5765 5769 5774 5779 5783 5787 5790 5793 5795 5797 5799 5800 5800 5800 5800 5801 5801 5802 5802 5803
5654 5653 5652 5652 5653 5655 5658 5661 5664 5669 5674 5679 5684 5690 5696 5701 5708 5714 5720 5727 5733 5740 5747 5753 5758 5763 5769 5774 5778 5782 5785 5788 5790 5792 5793 5794 5794 5794 5795 5795 5796 5797 5798
5634 5632 5631 5631 5632 5634 5637 5640 5643 5648 5653 5659 5665 5671 5677 5683 5690 5697 5703 5711 5718 5725 5733 5740 5746 5752 5758 5764 5769 5773 5777 5780 5783 5785 5786 5787 5788 5788 5789 5789 5790 5791 5792
5614 5612 5612 5612 5613 5615 5618 5621 5624 5628 5633 5639 5645 5651 5658 5664 5671 5678 5686 5694 5702 5710 5719 5726 5734 5741 5747 5754 5760 5764 5768 5772 5775 5777 5779 5781 5782 5782 5783 5783 5784 5785 5786
5594 5593 5593 5593 5595 5597 5600 5604 5607 5611 5616 5622 5627 5633 5639 5646 5653 5660 5668 5676 5685 5694 5704 5712 5721 5728 5736 5743 5749 5755 5760 5764 5767 5770 5772 5774 5775 5776 5777 5778 5779 5780 5781
5575 5574 5575 5576 5578 5580 5583 5587 5591 5596 5601 5607 5611 5617 5622 5628 5635 5642 5650 5658 5667 5677 5688 5697 5707 5716 5724 5732 5738 5745 5750 5755 5759 5762 5765 5767 5769 5770 5771 5772 5773 5775 5776
5557 5557 5557 5558 5561 5564 5567 5572 5576 5582 5588 5593 5599 5603 5608 5614 5620 5627 5634 5642 5651 5661 5672 5683 5694 5703 5711 5719 5727 5734 5739 5745 5750 5754 5758 5761 5763 5764 5765 5767 5768 5769 5771
5540 5540 5541 5542 5545 5549 5553 5557 5563 5569 5575 5582 5587 5592 5597 5602 5607 5613 5620 5629 5636 5645 5655 5667 5679 5689 5698 5707 5715 5723 5730 5736 5742 5747 5751 5754 5756 5758 5759 5761 5762 5764 5765
5526 5525 5526 5528 5531 5535 5539 5544 5550 5557 5564 5571 5577 5582 5587 5592 5596 5601 5607 5614 5621 5629 5640 5652 5665 5676 5686 5695 5705 5713 5721 5728 5734 5739 5743 5746 5749 5751 5753 5755 5756 5758 5760